Overview Statistics Trail Chart Weather Telemetry Raw packets
 

This is the latest recevied weather packets stored in our database for station/object SV4JYD-14. If no packets are shown the sender has not sent any weather packets the latest 10 day(s).

<< 24 25 26 27 28 29 30 >>
Time Temp. Humidity Pressure Rain* Wind** Luminosity Snow
1777450009 17.22° C 50% 1018 hPa 0 mm - - -
1777449108 17.22° C 50% 1018 hPa 0 mm - - -
1777448208 17.22° C 49% 1018 hPa 0 mm - - -
1777447308 17.22° C 50% 1018 hPa 0 mm - - -
1777446408 17.78° C 49% 1017 hPa 0 mm - - -
1777445508 17.22° C 50% 1017 hPa 0 mm - - -
1777444607 16.67° C 52% 1017 hPa 0 mm - - -
1777443707 16.11° C 54% 1018 hPa 0 mm - - -
1777442807 16.11° C 54% 1018 hPa 0 mm - - -
1777441907 16.11° C 57% 1017 hPa 0 mm - - -
1777441006 15.56° C 58% 1017 hPa 0 mm - - -
1777440106 15.56° C 59% 1018 hPa 0 mm - - -
1777439206 15° C 61% 1018 hPa 0 mm - - -
1777438305 14.44° C 64% 1017 hPa 0 mm - - -
1777437405 12.78° C 65% 1017 hPa 0 mm - - -
1777436505 12.22° C 69% 1018 hPa 0 mm - - -
1777435605 12.22° C 70% 1018 hPa 0 mm - - -
1777434705 12.22° C 69% 1017 hPa 0 mm - - -
1777433804 12.22° C 66% 1017 hPa 0 mm - - -
1777432904 12.22° C 65% 1017 hPa 0 mm - - -
1777432004 12.78° C 64% 1017 hPa 0 mm - - -
1777431104 13.33° C 63% 1017 hPa 0 mm - - -
1777430203 13.33° C 62% 1017 hPa 0 mm - - -
1777429303 13.33° C 61% 1017 hPa 0 mm - - -
1777428403 13.33° C 61% 1017 hPa 0 mm - - -

* Rain latest hour (hover to see other rain measurements)
** Current wind speed in m/s (hover to see current wind gust speed)